Location: Nachod
(50.4170°N, 16.1670°E)
Time: 19:03:34
(UTC+02:00)

ISS - Pass Details

Date: 26 March 2019
Orbit: 408 x 410 km, 51.6° (Epoch: 20 April)

Event Time Altitude Azimuth Distance (km) Brightness Sun altitude
Rises 19:23:43 0° 247° (WSW) 2,333 0.9 -11.2°
Reaches altitude 10° 19:25:48 10° 246° (WSW) 1,473 -0.3 -11.5°
Maximum altitude 19:29:06 74° 161° (SSE) 431 -3.9 -12.0°
Enters shadow 19:31:25 18° 78° (ENE) 1,084 -2.2 -12.3°
